Location: Pabrico
(37.5827°N, 122.0063°W)
Time: 09:35:36
(UTC+00:00)

Cosmos 2112 Rocket - Pass Details

Date: 13 April 2024
Orbit: 754 x 785 km, 74.0° (Epoch: 23 May)

Event Time Altitude Azimuth Distance (km) Brightness Sun altitude
Exits shadow 12:17:11 23° 229° (SW) 1,615 5.1 -15.4°
Maximum altitude 12:20:13 48° 292° (WNW) 1,022 4.4 -14.9°
Drops below altitude 10° 12:25:23 10° 6° (N) 2,349 6.9 -13.9°
Sets 12:27:52 0° 13° (NNE) 3,282 7.8 -13.5°
